FW3914 Weather Reports


Display with metric or nautical units.
time (UTC)temp
F
wind
direction
speed
MPH
gust
MPH
rain 1hr
in
rain 24hr
in
rain mn
in
humidity
%
barometer
mb
20260831231451 103 327 2.0 3.0 0.00 0.00 0.00 32 1013.8
20260831230946 105 247 3.0 4.0 0.00 0.00 0.00 33 1013.8
20260831230440 103 302 2.0 5.0 0.00 0.00 0.00 33 1013.6
20260831225934 102 230 3.0 5.0 0.00 0.00 0.00 34 1013.7
20260831225431 103 269 0.0 4.0 0.00 0.00 0.00 32 1014.1
20260831224926 104 318 4.0 8.0 0.00 0.00 0.00 32 1013.7
20260831224425 104 176 4.0 6.0 0.00 0.00 0.00 32 1013.9
20260831223920 104 259 4.0 5.0 0.00 0.00 0.00 32 1013.9
20260831223416 103 294 0.0 5.0 0.00 0.00 0.00 32 1013.9
20260831222913 104 236 2.0 6.0 0.00 0.00 0.00 31 1014.1
20260831222408 104 206 7.0 8.0 0.00 0.00 0.00 31 1014.1
20260831221903 105 351 0.0 6.0 0.00 0.00 0.00 31 1014.1
20260831221358 106 169 2.0 6.0 0.00 0.00 0.00 30 1014.1
20260831220854 105 169 3.0 5.0 0.00 0.00 0.00 31 1014.2
20260831220349 104 264 2.0 8.0 0.00 0.00 0.00 32 1014.4
20260831215844 104 331 1.0 6.0 0.00 0.00 0.00 32 1014.2
20260831215339 105 226 3.0 5.0 0.00 0.00 0.00 33 1014.0
20260831214836 105 262 3.0 5.0 0.00 0.00 0.00 32 1014.5
20260831214333 104 252 4.0 10.0 0.00 0.00 0.00 33 1014.3
20260831213828 106 233 6.0 9.0 0.00 0.00 0.00 31 1014.3
20260831213325 105 216 3.0 10.0 0.00 0.00 0.00 32 1014.6
20260831212820 105 237 3.0 8.0 0.00 0.00 0.00 32 1014.5
20260831212316 106 237 4.0 6.0 0.00 0.00 0.00 31 1014.5
20260831211815 104 191 4.0 8.0 0.00 0.00 0.00 31 1014.5
20260831211310 104 228 3.0 9.0 0.00 0.00 0.00 34 1014.8
20260831210804 104 324 0.0 10.0 0.00 0.00 0.00 32 1014.6
20260831210300 105 313 8.0 9.0 0.00 0.00 0.00 31 1014.7
20260831205800 104 255 2.0 5.0 0.00 0.00 0.00 33 1014.8
20260831205256 105 199 4.0 7.0 0.00 0.00 0.00 31 1014.7
20260831204755 104 259 3.0 5.0 0.00 0.00 0.00 33 1015.0
20260831204255 104 294 0.0 8.0 0.00 0.00 0.00 32 1015.0
20260831203754 103 15 0.0 5.0 0.00 0.00 0.00 33 1015.1
20260831203249 102 169 4.0 7.0 0.00 0.00 0.00 33 1015.3
20260831202748 104 178 1.0 6.0 0.00 0.00 0.00 30 1015.3
20260831202243 104 217 3.0 7.0 0.00 0.00 0.00 31 1015.1
20260831201742 104 251 4.0 9.0 0.00 0.00 0.00 31 1015.3
20260831201241 104 251 4.0 6.0 0.00 0.00 0.00 30 1015.6
20260831200737 104 252 2.0 6.0 0.00 0.00 0.00 33 1015.6
20260831200232 104 184 4.0 7.0 0.00 0.00 0.00 31 1015.6
20260831195727 103 231 4.0 9.0 0.00 0.00 0.00 27 1015.9
20260831195223 103 254 4.0 10.0 0.00 0.00 0.00 36 1015.8
20260831194718 103 198 3.0 7.0 0.00 0.00 0.00 36 1015.7
20260831194214 102 232 2.0 8.0 0.00 0.00 0.00 36 1016.2
20260831193707 103 256 4.0 7.0 0.00 0.00 0.00 35 1016.0
20260831193203 102 241 3.0 6.0 0.00 0.00 0.00 36 1016.1
20260831192658 103 251 3.0 10.0 0.00 0.00 0.00 37 1016.5
20260831192153 102 1 6.0 10.0 0.00 0.00 0.00 36 1016.2
20260831191649 102 164 2.0 6.0 0.00 0.00 0.00 34 1016.3
20260831191145 102 244 3.0 10.0 0.00 0.00 0.00 37 1016.2
20260831190639 101 255 2.0 7.0 0.00 0.00 0.00 38 1016.4
20260831190138 100 242 3.0 11.0 0.00 0.00 0.00 38 1016.4
20260831185634 101 293 5.0 7.0 0.00 0.00 0.00 38 1016.5
20260831185129 101 199 2.0 9.0 0.00 0.00 0.00 37 1016.6
20260831184623 101 247 5.0 9.0 0.00 0.00 0.00 38 1016.5
20260831184119 101 245 2.0 9.0 0.00 0.00 0.00 38 1016.3
20260831183613 100 219 6.0 11.0 0.00 0.00 0.00 37 1016.7
20260831183112 101 207 3.0 10.0 0.00 0.00 0.00 36 1016.6
20260831182612 101 272 2.0 6.0 0.00 0.00 0.00 38 1016.9
20260831182108 100 290 2.0 7.0 0.00 0.00 0.00 38 1016.8
20260831181607 99 246 7.0 8.0 0.00 0.00 0.00 40 1016.8
20260831181102 100 299 3.0 9.0 0.00 0.00 0.00 40 1016.8
20260831180557 99 234 2.0 6.0 0.00 0.00 0.00 40 1017.1
20260831180053 99 220 2.0 5.0 0.00 0.00 0.00 41 1017.1
20260831175547 99 259 5.0 5.0 0.00 0.00 0.00 43 1017.1
20260831175044 99 190 3.0 6.0 0.00 0.00 0.00 41 1017.1
20260831174538 99 354 1.0 9.0 0.00 0.00 0.00 42 1017.3
20260831174032 98 191 3.0 8.0 0.00 0.00 0.00 42 1017.3
20260831173531 97 199 4.0 9.0 0.00 0.00 0.00 43 1017.6
20260831173027 98 208 4.0 7.0 0.00 0.00 0.00 43 1017.5
20260831172522 98 273 2.0 12.0 0.00 0.00 0.00 43 1017.7
20260831172017 98 256 2.0 6.0 0.00 0.00 0.00 45 1017.5
20260831171513 98 255 2.0 6.0 0.00 0.00 0.00 45 1017.5
20260831171010 98 202 2.0 6.0 0.00 0.00 0.00 43 1017.6
20260831170505 97 245 1.0 4.0 0.00 0.00 0.00 44 1017.9
20260831170002 96 218 5.0 6.0 0.00 0.00 0.00 45 1017.8
20260831165457 98 222 3.0 8.0 0.00 0.00 0.00 46 1017.8
20260831164954 97 232 3.0 7.0 0.00 0.00 0.00 45 1017.7
20260831164450 97 314 3.0 6.0 0.00 0.00 0.00 45 1017.7
20260831163944 96 268 4.0 8.0 0.00 0.00 0.00 45 1018.0
20260831163440 96 191 7.0 7.0 0.00 0.00 0.00 44 1017.6
20260831162938 96 216 3.0 7.0 0.00 0.00 0.00 46 1017.9
20260831162434 96 264 4.0 9.0 0.00 0.00 0.00 44 1018.0
20260831161932 97 233 3.0 6.0 0.00 0.00 0.00 44 1017.9
20260831161429 95 207 4.0 8.0 0.00 0.00 0.00 45 1017.9
20260831160925 95 225 5.0 7.0 0.00 0.00 0.00 45 1018.1
20260831160419 95 257 3.0 8.0 0.00 0.00 0.00 46 1017.9
20260831155919 94 201 4.0 20.0 0.00 0.00 0.00 45 1017.9
20260831155419 95 249 3.0 8.0 0.00 0.00 0.00 45 1017.9
20260831154915 94 229 3.0 6.0 0.00 0.00 0.00 46 1017.8
20260831154411 93 241 6.0 10.0 0.00 0.00 0.00 46 1017.9
20260831153909 93 278 4.0 7.0 0.00 0.00 0.00 45 1018.0
20260831153405 93 224 5.0 8.0 0.00 0.00 0.00 45 1017.8
20260831152901 92 220 2.0 10.0 0.00 0.00 0.00 46 1017.8
20260831152356 93 196 2.0 7.0 0.00 0.00 0.00 46 1018.0
20260831151852 93 215 3.0 9.0 0.00 0.00 0.00 50 1017.7
20260831151351 92 244 3.0 7.0 0.00 0.00 0.00 49 1017.9
20260831150846 92 247 1.0 5.0 0.00 0.00 0.00 51 1017.5
20260831150342 91 272 2.0 8.0 0.00 0.00 0.00 52 1017.5
20260831145840 91 212 2.0 6.0 0.00 0.00 0.00 54 1017.8
20260831145337 90 204 4.0 6.0 0.00 0.00 0.00 56 1017.5
20260831144832 90 247 4.0 7.0 0.00 0.00 0.00 56 1017.6
20260831144328 90 212 2.0 5.0 0.00 0.00 0.00 58 1017.7
20260831143823 89 179 1.0 5.0 0.00 0.00 0.00 59 1017.6
20260831143318 89 250 2.0 5.0 0.00 0.00 0.00 60 1017.6
20260831142813 89 216 3.0 4.0 0.00 0.00 0.00 61 1017.8
20260831142308 89 211 0.0 5.0 0.00 0.00 0.00 61 1017.5
20260831141809 87 255 2.0 5.0 0.00 0.00 0.00 63 1017.7
20260831141303 87 172 3.0 5.0 0.00 0.00 0.00 63 1017.6
20260831140758 87 226 3.0 4.0 0.00 0.00 0.00 64 1017.6
20260831140252 86 191 3.0 5.0 0.00 0.00 0.00 65 1017.6
20260831135750 86 229 3.0 7.0 0.00 0.00 0.00 66 1017.2
20260831135246 85 226 3.0 6.0 0.00 0.00 0.00 67 1017.6
20260831134741 85 254 2.0 5.0 0.00 0.00 0.00 66 1017.5
20260831134238 85 241 3.0 5.0 0.00 0.00 0.00 67 1017.6
20260831133736 85 208 3.0 6.0 0.00 0.00 0.00 68 1017.4
20260831133231 84 172 3.0 6.0 0.00 0.00 0.00 69 1017.3
20260831132726 84 246 2.0 5.0 0.00 0.00 0.00 69 1017.2
20260831132221 83 124 3.0 7.0 0.00 0.00 0.00 70 1017.3
20260831131720 83 204 4.0 6.0 0.00 0.00 0.00 70 1017.1
20260831131218 83 190 2.0 3.0 0.00 0.00 0.00 71 1017.1
20260831130712 83 232 3.0 5.0 0.00 0.00 0.00 71 1016.9
20260831130208 82 179 2.0 3.0 0.00 0.00 0.00 72 1016.8
20260831125706 81 215 0.0 4.0 0.00 0.00 0.00 73 1016.9
20260831125202 81 206 3.0 6.0 0.00 0.00 0.00 73 1016.8
20260831124657 80 215 1.0 4.0 0.00 0.00 0.00 75 1016.7
20260831124154 80 207 1.0 5.0 0.00 0.00 0.00 76 1016.6
20260831123653 79 232 2.0 4.0 0.00 0.00 0.00 76 1016.7
20260831123151 79 185 2.0 3.0 0.00 0.00 0.00 77 1016.7
20260831122646 79 225 2.0 3.0 0.00 0.00 0.00 76 1016.5
20260831122142 79 218 1.0 6.0 0.00 0.00 0.00 76 1016.5
20260831121641 78 201 2.0 3.0 0.00 0.00 0.00 76 1016.2
20260831121137 78 220 2.0 3.0 0.00 0.00 0.00 76 1016.4
20260831120632 79 151 2.0 4.0 0.00 0.00 0.00 76 1016.4
20260831120122 79 299 0.0 3.0 0.00 0.00 0.00 75 1016.0
20260831115618 79 129 2.0 4.0 0.00 0.00 0.00 75 1016.0
20260831115113 79 213 0.0 4.0 0.00 0.00 0.00 75 1016.0
20260831114612 79 167 0.0 5.0 0.00 0.00 0.00 74 1015.8
20260831114107 79 248 0.0 3.0 0.00 0.00 0.00 74 1015.7
20260831113606 79 263 2.0 3.0 0.00 0.00 0.00 74 1015.9
20260831113102 79 194 1.0 5.0 0.00 0.00 0.00 73 1015.9
20260831112601 79 178 2.0 3.0 0.00 0.00 0.00 72 1015.5
20260831112056 79 199 3.0 3.0 0.00 0.00 0.00 72 1015.7
20260831111552 79 351 0.0 5.0 0.00 0.00 0.00 72 1015.7
20260831111048 79 186 2.0 4.0 0.00 0.00 0.00 72 1015.3
20260831110543 79 183 3.0 5.0 0.00 0.00 0.00 72 1015.3
20260831110038 79 183 0.0 3.0 0.00 0.00 0.00 72 1015.5
20260831105537 80 261 0.0 3.0 0.00 0.00 0.00 72 1015.5
20260831105032 80 190 0.0 3.0 0.00 0.00 0.00 71 1015.5
20260831104528 80 153 2.0 3.0 0.00 0.00 0.00 71 1015.2
20260831104024 80 180 0.0 2.0 0.00 0.00 0.00 71 1015.3
20260831103519 80 224 0.0 2.0 0.00 0.00 0.00 71 1015.1
20260831103015 80 119 1.0 2.0 0.00 0.00 0.00 70 1015.2
20260831102509 80 218 0.0 2.0 0.00 0.00 0.00 70 1015.2
20260831102004 80 218 0.0 3.0 0.00 0.00 0.00 70 1015.5
20260831101459 80 229 1.0 3.0 0.00 0.00 0.00 69 1015.3
20260831100955 81 223 2.0 3.0 0.00 0.00 0.00 69 1015.6
20260831100451 81 219 1.0 3.0 0.00 0.00 0.00 68 1015.7
20260831095946 81 216 2.0 3.0 0.00 0.00 0.00 67 1015.5
20260831095445 81 181 2.0 3.0 0.00 0.00 0.00 67 1015.2
20260831094940 81 230 1.0 5.0 0.00 0.00 0.00 67 1015.5
20260831094436 81 228 2.0 3.0 0.00 0.00 0.00 66 1015.1
20260831093932 81 185 1.0 3.0 0.00 0.00 0.00 66 1015.1
20260831093426 81 133 0.0 3.0 0.00 0.00 0.00 65 1015.1
20260831092924 81 226 2.0 2.0 0.00 0.00 0.00 66 1015.2
20260831092419 82 215 1.0 3.0 0.00 0.00 0.00 65 1015.1
20260831091914 82 213 0.0 4.0 0.00 0.00 0.00 64 1015.0
20260831091409 82 256 2.0 2.0 0.00 0.00 0.00 63 1015.0
20260831090904 83 203 0.0 2.0 0.00 0.00 0.00 62 1014.9
20260831090400 83 233 2.0 3.0 0.00 0.00 0.00 62 1014.9
20260831085856 83 269 0.0 3.0 0.00 0.00 0.00 62 1015.0
20260831085350 83 209 2.0 3.0 0.00 0.00 0.00 61 1014.7
20260831084844 83 230 2.0 3.0 0.00 0.00 0.00 61 1014.8
20260831084341 84 221 3.0 4.0 0.00 0.00 0.00 60 1014.9
20260831083837 84 219 2.0 3.0 0.00 0.00 0.00 59 1014.9
20260831083332 84 203 3.0 6.0 0.00 0.00 0.00 59 1014.8
20260831082831 84 233 3.0 5.0 0.00 0.00 0.00 59 1014.8
20260831082326 84 217 2.0 5.0 0.00 0.00 0.00 59 1014.6
20260831081822 84 214 3.0 5.0 0.00 0.00 0.00 59 1014.8
20260831081317 83 251 2.0 9.0 0.00 0.00 0.00 60 1014.9
20260831080813 83 200 5.0 6.0 0.00 0.00 0.00 60 1014.9
20260831080307 82 246 0.0 3.0 0.00 0.00 0.00 62 1014.8
20260831075803 82 254 2.0 3.0 0.00 0.00 0.00 62 1014.6
20260831075258 82 228 2.0 3.0 0.00 0.00 0.00 62 1014.9
20260831074758 82 222 2.0 3.0 0.00 0.00 0.00 62 1014.7
20260831074251 82 234 1.0 3.0 0.00 0.00 0.00 63 1014.7
20260831073748 82 260 1.0 2.0 0.00 0.00 0.00 62 1014.6
20260831073246 82 172 1.0 2.0 0.00 0.00 0.00 62 1014.5
20260831072742 83 269 0.0 3.0 0.00 0.00 0.00 62 1014.5
20260831072238 83 255 0.0 2.0 0.00 0.00 0.00 62 1014.6
20260831071738 83 194 1.0 2.0 0.00 0.00 0.00 62 1014.5
20260831071233 82 187 0.0 2.0 0.00 0.00 0.00 62 1014.2
20260831070727 83 236 2.0 2.0 0.00 0.00 0.00 62 1014.5
20260831070221 83 243 0.0 2.0 0.00 0.00 0.00 61 1014.8
20260831065720 83 205 0.0 2.0 0.00 0.00 0.00 61 1014.9
20260831065218 83 176 1.0 2.0 0.00 0.00 0.00 60 1014.5
20260831064713 83 242 2.0 3.0 0.00 0.00 0.00 60 1014.6
20260831064208 84 238 2.0 3.0 0.00 0.00 0.00 60 1014.8
20260831063705 84 207 1.0 3.0 0.00 0.00 0.00 59 1014.7
20260831063154 84 221 2.0 3.0 0.00 0.00 0.00 59 1014.8
20260831062654 84 200 2.0 3.0 0.00 0.00 0.00 59 1014.7
20260831062148 84 237 0.0 2.0 0.00 0.00 0.00 59 1014.6
20260831061646 84 232 1.0 2.0 0.00 0.00 0.00 59 1014.5
20260831061142 84 203 2.0 3.0 0.00 0.00 0.00 58 1014.7
20260831060638 84 169 0.0 3.0 0.00 0.00 0.00 58 1014.7
20260831060132 84 238 2.0 2.0 0.00 0.00 0.00 58 1014.6
20260831055631 84 193 1.0 2.0 0.00 0.00 0.00 58 1014.7
20260831055127 84 239 2.0 2.0 0.00 0.00 0.00 58 1014.8
20260831054626 85 230 2.0 2.0 0.00 0.00 0.00 58 1014.8
20260831054126 85 199 1.0 2.0 0.00 0.00 0.00 57 1014.7
20260831053621 85 242 0.0 3.0 0.00 0.00 0.00 58 1014.9
20260831053120 85 231 0.0 2.0 0.00 0.00 0.00 57 1014.8
20260831052619 85 245 2.0 3.0 0.00 0.00 0.00 57 1014.8
20260831052118 86 192 2.0 2.0 0.00 0.00 0.00 57 1014.6
20260831051616 86 167 3.0 3.0 0.00 0.00 0.00 56 1014.5
20260831051115 86 195 1.0 3.0 0.00 0.00 0.00 56 1014.5
20260831050610 85 214 1.0 2.0 0.00 0.00 0.00 56 1014.7
20260831050109 85 242 0.0 2.0 0.00 0.00 0.00 57 1014.4
20260831045608 85 226 0.0 2.0 0.00 0.00 0.00 58 1014.4
20260831045103 85 257 0.0 1.0 0.00 0.00 0.00 57 1014.6
20260831044559 85 253 0.0 1.0 0.00 0.00 0.00 57 1014.6
20260831044054 86 269 0.0 2.0 0.00 0.00 0.00 57 1014.4
20260831043549 86 218 0.0 2.0 0.00 0.00 0.00 56 1014.5
20260831043045 86 208 0.0 2.0 0.00 0.00 0.00 56 1014.4
20260831042544 86 269 0.0 1.0 0.00 0.00 0.00 56 1014.5
20260831042039 86 220 0.0 2.0 0.00 0.00 0.00 55 1014.7
20260831041534 87 234 0.0 2.0 0.00 0.00 0.00 56 1014.5
20260831041027 87 194 1.0 2.0 0.00 0.00 0.00 55 1014.5
20260831040522 87 228 0.0 2.0 0.00 0.00 0.00 55 1014.3
20260831040022 87 202 1.0 2.0 0.00 0.00 0.00 54 1014.4
20260831035519 87 224 1.0 2.0 0.00 0.00 0.00 54 1014.5
20260831035014 87 225 0.0 2.0 0.00 0.00 0.00 56 1014.2
20260831034504 88 189 1.0 2.0 0.00 0.00 0.00 52 1014.4
20260831033959 88 224 0.0 2.0 0.00 0.00 0.00 52 1014.2
20260831033454 88 230 0.0 2.0 0.00 0.00 0.00 52 1014.0
20260831032950 88 172 0.0 3.0 0.00 0.00 0.00 51 1014.2
20260831032449 88 223 2.0 2.0 0.00 0.00 0.00 51 1014.4
20260831031945 88 242 2.0 2.0 0.00 0.00 0.00 52 1014.2
20260831031444 89 231 1.0 3.0 0.00 0.00 0.00 51 1014.2
20260831030944 89 202 1.0 3.0 0.00 0.00 0.00 50 1014.3
20260831030443 88 235 1.0 3.0 0.00 0.00 0.00 51 1014.3
20260831025941 88 226 1.0 2.0 0.00 0.00 0.00 50 1014.1
20260831025440 89 236 1.0 2.0 0.00 0.00 0.00 50 1014.1
20260831024936 89 249 1.0 2.0 0.00 0.00 0.00 49 1014.1
20260831024436 89 258 0.0 3.0 0.00 0.00 0.00 49 1014.1
20260831023931 89 214 2.0 2.0 0.00 0.00 0.00 48 1013.8
20260831023429 90 272 1.0 3.0 0.00 0.00 0.00 48 1013.7
20260831022925 90 202 0.0 2.0 0.00 0.00 0.00 47 1013.9
20260831022423 91 240 2.0 3.0 0.00 0.00 0.00 48 1013.7
20260831021917 90 204 1.0 4.0 0.00 0.00 0.00 46 1013.5
20260831021412 90 220 2.0 3.0 0.00 0.00 0.00 46 1013.6
20260831020908 90 233 2.0 3.0 0.00 0.00 0.00 47 1013.3
20260831020407 90 208 1.0 3.0 0.00 0.00 0.00 46 1013.4
20260831015902 91 220 1.0 3.0 0.00 0.00 0.00 45 1013.5
20260831015359 91 199 1.0 3.0 0.00 0.00 0.00 45 1013.5
20260831014858 91 247 1.0 2.0 0.00 0.00 0.00 46 1013.4
20260831014353 91 221 2.0 3.0 0.00 0.00 0.00 44 1013.3
20260831013849 92 192 2.0 4.0 0.00 0.00 0.00 43 1013.1
20260831013344 92 206 1.0 3.0 0.00 0.00 0.00 43 1013.0
20260831012838 92 198 2.0 3.0 0.00 0.00 0.00 43 1013.0
20260831012334 92 217 1.0 3.0 0.00 0.00 0.00 43 1013.2
20260831011833 92 239 1.0 3.0 0.00 0.00 0.00 45 1013.0
20260831011328 93 197 2.0 3.0 0.00 0.00 0.00 43 1013.1
20260831010819 93 207 1.0 2.0 0.00 0.00 0.00 42 1013.0
20260831010318 93 254 2.0 3.0 0.00 0.00 0.00 43 1012.9
20260831005814 94 219 3.0 3.0 0.00 0.00 0.00 41 1013.0
20260831005310 94 196 1.0 4.0 0.00 0.00 0.00 40 1013.0
20260831004804 95 219 1.0 3.0 0.00 0.00 0.00 39 1012.7
20260831004301 95 218 3.0 4.0 0.00 0.00 0.00 39 1012.7
20260831003756 95 252 3.0 5.0 0.00 0.00 0.00 41 1012.7
20260831003252 96 220 3.0 4.0 0.00 0.00 0.00 39 1012.9
20260831002751 96 237 3.0 6.0 0.00 0.00 0.00 38 1012.8
20260831002245 96 205 4.0 5.0 0.00 0.00 0.00 38 1013.1
20260831001741 96 254 2.0 6.0 0.00 0.00 0.00 38 1012.8
20260831001236 97 138 2.0 6.0 0.00 0.00 0.00 37 1012.9
20260831000733 97 201 3.0 6.0 0.00 0.00 0.00 37 1012.9
20260831000227 97 235 2.0 5.0 0.00 0.00 0.00 37 1013.3
20260830235726 97 239 3.0 4.0 0.00 0.00 0.00 38 1013.1
20260830235221 98 239 2.0 3.0 0.00 0.00 0.00 38 1013.2
20260830234716 99 239 3.0 4.0 0.00 0.00 0.00 37 1013.1
20260830234212 99 298 3.0 7.0 0.00 0.00 0.00 36 1013.0
20260830233702 100 208 5.0 6.0 0.00 0.00 0.00 35 1013.1
20260830233157 101 139 2.0 7.0 0.00 0.00 0.00 35 1013.0
20260830232653 100 200 3.0 5.0 0.00 0.00 0.00 35 1013.2
20260830232149 101 170 5.0 9.0 0.00 0.00 0.00 34 1013.1